This is the latest recevied weather packets stored in our database for station/object N5AJY. If no packets are shown the sender has not sent any weather packets the latest 10 day(s).
| Time | Temp. | Humidity | Pressure | Rain* | Wind** | Luminosity | Snow |
|---|---|---|---|---|---|---|---|
| 1777136203 | 19.44° C | 84% | 1005 hPa | 0 mm | - | - | - |
| 1777135604 | 19.44° C | 88% | 1005.3 hPa | 0 mm | - | - | - |
| 1777135002 | 18.89° C | 91% | 1005.4 hPa | 0 mm | - | - | - |
| 1777134707 | 18.89° C | 91% | 1005.4 hPa | 0 mm | - | - | - |
| 1777133806 | 17.78° C | 97% | 1005.5 hPa | 0 mm | - | - | - |
| 1777133503 | 17.22° C | 97% | 1005.5 hPa | 0 mm | - | - | - |
| 1777133202 | 17.22° C | 97% | 1005.5 hPa | 0 mm | - | - | - |
| 1777132907 | 17.22° C | 97% | 1005.5 hPa | 0 mm | - | - | - |
| 1777132602 | 17.22° C | 97% | 1005.6 hPa | 0 mm | - | - | - |
| 1777132305 | 16.67° C | 97% | 1005.7 hPa | 0 mm | - | - | - |
| 1777132002 | 16.67° C | 97% | 1005.7 hPa | 0 mm | - | - | - |
| 1777131404 | 16.67° C | 97% | 1005.7 hPa | 0 mm | - | - | - |
| 1777131103 | 16.67° C | 97% | 1005.7 hPa | 0 mm | - | - | - |
| 1777130803 | 16.11° C | 97% | 1005.8 hPa | 0 mm | - | - | - |
| 1777130506 | 16.11° C | 97% | 1005.8 hPa | 0 mm | - | - | - |
| 1777130203 | 16.11° C | 98% | 1005.7 hPa | 0 mm | - | - | - |
| 1777129602 | 15.56° C | 98% | 1005.7 hPa | 0 mm | - | - | - |
| 1777129306 | 15.56° C | 98% | 1005.7 hPa | 0 mm | - | - | - |
| 1777128706 | 15° C | 97% | 1005.8 hPa | 0 mm | - | - | - |
| 1777128402 | 15° C | 97% | 1005.9 hPa | 0 mm | - | - | - |
| 1777128105 | 15° C | 98% | 1005.8 hPa | 0 mm | - | - | - |
| 1777127804 | 15° C | 97% | 1005.9 hPa | 0 mm | - | - | - |
| 1777127505 | 15° C | 97% | 1005.9 hPa | 0 mm | - | - | - |
| 1777127202 | 15° C | 97% | 1005.9 hPa | 0 mm | - | - | - |
| 1777126602 | 15° C | 97% | 1005.6 hPa | 0 mm | - | - | - |
* Rain latest hour (hover to see other rain measurements)
** Current wind speed in m/s (hover to see current wind gust speed)